Linz Airport, Austria

8:08 AM CET on November 20, 2019 (GMT +0100)
Linz

Weather History for LOWL - October, 2019

Change the Weather History Date:

Wednesday, October 23, 2019

  Actual Average Record
Temperature  
Mean Temperature 58 °F -  
Max Temperature 66 °F 45 °F 66 °F (2004)
Min Temperature 51 °F 35 °F 28 °F (2011)
Degree Days  
Heating Degree Days 6    
Growing Degree Days 8 (Base 50)    
Moisture  
Dew Point 55 °F    
Average Humidity 93    
Maximum Humidity 100    
Minimum Humidity 73    
Precipitation  
Precipitation 0.00 in - - ()
Sea Level Pressure  
Sea Level Pressure 30.07 in    
Wind  
Wind Speed 3 mph ()    
Max Wind Speed 7 mph    
Max Gust Speed -    
Visibility 2.5 miles    
Events Fog    
Averages and records for this station are not official NWS values.
T = Trace of Precipitation, MM = Missing Value Source: Averaged Metar Reports

Daily Weather History Graph

Daily Weather History Graph

Search for Another Location

Airport or City:

Astronomy

Oct. 23, 2019 Rise Set
Actual Time 7:34 AM CEST 6:00 PM CEST
Civil Twilight 7:02 AM CEST 6:32 PM CEST
Nautical Twilight 6:25 AM CEST 7:08 PM CEST
Astronomical Twilight 5:49 AM CEST 7:44 PM CEST
Moon 12:56 AM CEST (10/23) 4:11 PM CEST (10/23)
Length of Visible Light 11h 30m
Length of Day
10h 26m
Waning Crescent, 29% of the Moon is Illuminated
Oct 23
Waning Crescent
Oct 28
New
Nov 4
First Quarter
Nov 12
Full
Nov 19
Last Quarter

Hourly Weather History & Observations

Time (CEST) Temp. Dew Point Humidity Pressure Visibility Wind Dir Wind Speed Gust Speed Precip Events Conditions
12:20 AM 53.6 °F 53.6 °F 100% 30.18 in 0.2 mi Variable 1.2 mph - N/A Fog Fog
12:50 AM 53.6 °F 53.6 °F 100% 30.18 in 0.2 mi WSW 2.3 mph - N/A Fog Fog
1:00 AM 53 °F 53 °F 100% 30.20 in 0 mi North 2.2 mph - - Fog Heavy Fog
1:20 AM 53.6 °F 53.6 °F 100% 30.18 in 0.2 mi Variable 2.3 mph - N/A Fog Fog
1:50 AM 53.6 °F 53.6 °F 100% 30.18 in - Variable 1.2 mph - N/A Fog Fog
2:00 AM 53 °F 53 °F 100% 30.19 in 0 mi North 2.2 mph - - Fog Heavy Fog
2:50 AM 53.6 °F 53.6 °F 100% 30.18 in 1.1 mi SW 2.3 mph - N/A Fog Patches of Fog
3:00 AM 54 °F 54 °F 98% 30.18 in 0 mi North 2.2 mph - - Fog Patches of Fog
3:20 AM 53.6 °F 53.6 °F 100% 30.15 in 0.9 mi Variable 2.3 mph - N/A   Mostly Cloudy
3:50 AM 53.6 °F 53.6 °F 100% 30.15 in 1.2 mi Variable 2.3 mph - N/A   Mostly Cloudy
4:20 AM 53.6 °F 53.6 °F 100% 30.15 in 1.5 mi Variable 1.2 mph - N/A   Mostly Cloudy
4:50 AM 53.6 °F 53.6 °F 100% 30.15 in 1.6 mi Variable 1.2 mph - N/A   Mostly Cloudy
5:00 AM 53 °F 53 °F 100% 30.15 in 1 mi North 2.2 mph - -   Mist
5:20 AM 53.6 °F 53.6 °F 100% 30.12 in 1.1 mi Variable 1.2 mph - N/A   Mostly Cloudy
5:50 AM 53.6 °F 53.6 °F 100% 30.12 in 1.1 mi SE 2.3 mph - N/A   Mostly Cloudy
6:00 AM 54 °F 54 °F 98% 30.14 in 1 mi North 2.2 mph - -   Mist
6:50 AM 53.6 °F 53.6 °F 100% 30.09 in 1.6 mi Variable 1.2 mph - N/A   Mostly Cloudy
7:00 AM 54 °F 54 °F 98% 30.12 in 1 mi North 2.2 mph - -   Mist
7:20 AM 53.6 °F 53.6 °F 100% 30.09 in - ESE 2.3 mph - N/A   Mostly Cloudy
7:50 AM 53.6 °F 53.6 °F 100% 30.09 in 1.6 mi Variable 1.2 mph - N/A   Mostly Cloudy
8:00 AM 54 °F 54 °F 100% 30.11 in 2 mi North 2.2 mph - -   Mist
8:20 AM 53.6 °F 53.6 °F 100% 30.09 in 1.7 mi East 2.3 mph - N/A   Mostly Cloudy
8:50 AM 55.4 °F 55.4 °F 100% 30.09 in 1.8 mi East 3.5 mph - N/A   Mostly Cloudy
9:20 AM 55.4 °F 55.4 °F 100% 30.09 in 1.8 mi East 3.5 mph - N/A   Mostly Cloudy
9:50 AM 57.2 °F 55.4 °F 94% 30.09 in - East 3.5 mph - N/A   Mostly Cloudy
10:00 AM 56 °F 56 °F 99% 30.10 in 2 mi North 4.5 mph - -   Mist
10:50 AM 59.0 °F 57.2 °F 94% 30.09 in 3.1 mi SE 5.8 mph - N/A   Mostly Cloudy
11:00 AM 58 °F 56 °F 93% 30.09 in 3 mi North 6.7 mph - -   Mist
11:20 AM 59.0 °F 55.4 °F 88% 30.09 in 3.7 mi ESE 6.9 mph - N/A   Mostly Cloudy
11:50 AM 60.8 °F 57.2 °F 88% 30.06 in 5.6 mi ESE 5.8 mph - N/A   Scattered Clouds
12:00 PM 61 °F 56 °F 80% 30.06 in 5 mi North 6.7 mph - -   Scattered Clouds
12:20 PM 62.6 °F 57.2 °F 82% 30.06 in 6.2 mi SE 5.8 mph - N/A   Scattered Clouds
12:50 PM 62.6 °F 57.2 °F 82% 30.06 in 6.2 mi SE 4.6 mph - N/A   Scattered Clouds
1:00 PM 63 °F 56 °F 73% 30.05 in 6 mi North 4.5 mph - -   Scattered Clouds
1:20 PM 64.4 °F 55.4 °F 73% 30.04 in 6.2 mi SE 3.5 mph - N/A   Partly Cloudy
1:50 PM 64.4 °F 57.2 °F 77% 30.04 in 6.2 mi SSE 3.5 mph - N/A   Scattered Clouds
2:50 PM 66.2 °F 57.2 °F 73% 30.01 in - Variable 4.6 mph - N/A   Clear
3:20 PM 66.2 °F 57.2 °F 73% 30.01 in - East 5.8 mph - N/A   Clear
3:50 PM 66.2 °F 57.2 °F 73% 29.98 in - ESE 6.9 mph - N/A   Clear
4:50 PM 64.4 °F 57.2 °F 77% 29.98 in - East 5.8 mph - N/A   Clear
5:20 PM 64.4 °F 57.2 °F 77% 29.98 in - SE 4.6 mph - N/A   Clear
5:50 PM 62.6 °F 57.2 °F 82% 29.98 in - Variable 2.3 mph - N/A   Clear
6:00 PM 62 °F 56 °F 77% 29.96 in 5 mi North 2.2 mph - -   Scattered Clouds
6:20 PM 59.0 °F 55.4 °F 88% 29.98 in 5.0 mi ESE 5.8 mph - N/A   Scattered Clouds
6:50 PM 59.0 °F 55.4 °F 88% 29.98 in 5.0 mi ESE 5.8 mph - N/A   Scattered Clouds
7:20 PM 57.2 °F 53.6 °F 88% 29.98 in 5.0 mi Variable 2.3 mph - N/A   Scattered Clouds
7:50 PM 55.4 °F 55.4 °F 100% 29.98 in 4.3 mi East 4.6 mph - N/A   Scattered Clouds
8:20 PM 55.4 °F 53.6 °F 94% 29.98 in 3.1 mi Variable 2.3 mph - N/A   Scattered Clouds
8:50 PM 53.6 °F 53.6 °F 100% 29.98 in 3.1 mi ENE 3.5 mph - N/A   Scattered Clouds
9:00 PM 54 °F 53 °F 95% 29.97 in 3 mi North 4.5 mph - -   Mist
9:20 PM 53.6 °F 51.8 °F 94% 29.98 in - NNE 3.5 mph - N/A   Partly Cloudy
10:20 PM 51.8 °F 51.8 °F 100% 29.95 in 0.9 mi NE 3.5 mph - N/A Fog Partly Cloudy
10:50 PM 51.8 °F 51.8 °F 100% 29.95 in 0.2 mi NE 3.5 mph - N/A Fog Fog
11:00 PM 51 °F 51 °F 100% 29.97 in 0 mi North 4.5 mph - - Fog Heavy Fog
11:50 PM 53.6 °F 53.6 °F 100% 29.95 in 0.3 mi ENE 3.5 mph - N/A Fog Fog